カタログに戻る

STARLINK-34750

運用中通信SSO
NORAD 65061·PAYLOAD·🇺🇸 United States

打ち上げ Jul 31, 2025 から Vandenberg Space Force Base

Loading…

次のパス (今後24時間)

TLE

最新Source: CelesTrak SupGP

元期: Sep 14, 2026, 22:52 UTC

1 65061C 25165F   26257.95326389  .02116000  00000+0  97509-1 0  2571
2 65061  97.2841 329.2902 0001466  90.6316  55.2843 15.19290892    14

AllMySatでSTARLINK-34750をリアルタイム追跡

Download on the App Store